[[{"header":{"parameterUnit":"m.s-1","parameterCategory":1,"la1":30.2991,"la2":30.254,"lo1":-89.0895,"lo2":-89.0444,"dy":0.0017,"dx":0.0017,"nx":28,"ny":28,"refTime":"2025-01-03T09:00:00:Z","depth":0,"parameterNumber":2,"parameterNumberName":"U-component_of_WINDS"},"data":[0,0,0,0,0,0,0,0,0,0,0,0,0,0,0,0,0,0,0,0,0,0,0,0,0,0,0,0,0,0,0,0,0,0,0,0,0,0,0,0,0,0,0,0,0,0,0,0,0,0,0,0,0,0,0,0,0,0,-5.0834,-5.0833,0,-5.0813,-5.0812,-5.0812,-5.0639,-5.0635,-5.063,-5.0626,-5.0608,-5.0611,-5.0615,0,0,0,0,0,0,0,0,0,0,0,0,0,-5.0726,-5.0729,-5.0834,-5.0833,-5.0833,-5.0813,-5.0812,-5.0812,-5.064,-5.0634,-5.0629,-5.0624,-5.0607,-5.0611,-5.0615,0,0,0,0,0,0,0,0,0,0,0,0,0,-5.0746,-5.073,-5.0834,-5.0745,-5.0736,-5.0813,-5.0812,-5.0812,-5.0641,-5.0634,-5.0628,-5.0622,-5.0605,-5.061,-5.0615,-5.0776,0,0,-5.0631,-5.0634,0,0,0,0,0,0,0,0,-5.0745,-5.075,-5.0758,-5.0751,-5.0742,-5.0722,-5.0767,-5.08,-5.0642,-5.0677,-5.0626,-5.0619,-5.0651,-5.0652,-5.0662,-5.0776,-5.0775,-5.0632,-5.0635,-5.0637,-5.0639,0,0,0,0,0,0,0,-5.0744,-5.075,-5.0825,-5.0758,-5.0749,-5.0706,-5.0702,-5.0773,-5.0701,-5.0674,-5.0661,-5.0661,-5.0645,-5.0658,-5.0661,-5.0775,-5.0632,-5.0636,-5.064,-5.0642,-5.1017,-5.1024,0,0,0,0,0,0,-5.0755,-5.075,-5.0826,-5.0825,-5.0728,-5.0713,-5.0709,-5.0735,-5.0699,-5.0688,-5.0666,-5.0653,-5.0652,-5.0655,-5.0659,-5.0844,-5.0637,-5.0642,-5.0645,-5.101,-5.1019,-5.1026,0,0,0,0,0,0,-5.0753,-5.0763,-5.0827,-5.0784,-5.0789,-5.0722,-5.0753,-5.0738,-5.075,-5.0694,-5.068,-5.0692,-5.0647,-5.0652,-5.0748,-5.0841,-5.0645,-5.0649,-5.1002,-5.1013,-5.1022,-5.1216,0,0,0,0,0,0,-5.0751,-5.0764,-5.0824,-5.0787,-5.0792,-5.0916,-5.0759,-5.0742,-5.0759,-5.0741,-5.0714,-5.0704,-5.0642,-5.0741,-5.0753,-5.0845,-5.0654,-5.0994,-5.1007,-5.1019,-5.1201,-5.1231,-5.1258,0,0,0,0,0,-5.0748,-5.088,-5.0828,-5.0838,-5.0866,-5.0922,-5.0925,-5.0851,-5.0767,-5.0827,-5.0791,-5.0704,-5.0829,-5.0752,-5.0765,-5.0859,-5.0987,-5.1003,-5.1018,-5.1188,-5.1225,-5.1257,0,0,0,0,0,0,-5.0932,-5.0874,-5.0815,-5.094,-5.0937,-5.0892,-5.0966,-5.0893,-5.0914,-5.0897,-5.0805,-5.08,-5.091,-5.0894,-5.081,-5.1012,-5.0893,-5.0912,-5.1018,-5.1053,-5.1081,-5.1082,-5.0658,0,0,0,0,0,-5.0987,-5.1036,-5.0983,-5.1098,-5.11,-5.1034,-5.1055,-5.0998,-5.0992,-5.099,-5.0961,-5.0959,-5.0997,-5.1025,-5.1057,-5.1198,-5.1189,-5.1269,-5.1297,-5.1321,-5.1338,-5.141,-5.1444,-5.1076,-5.1076,-5.1076,0,0,-5.1101,-5.1076,-5.1113,-5.1135,-5.1126,-5.1179,-5.1034,-5.1097,-5.1136,-5.1,-5.1088,-5.1067,-5.1059,-5.1178,-5.1229,-5.1168,-5.1437,-5.134,-5.136,-5.1364,-5.1429,-5.1464,-5.1495,-5.1087,-5.1085,-5.1083,0,0,-5.1336,-5.1323,-5.1416,-5.1409,-5.1397,-5.1352,-5.1375,-5.1341,-5.1321,-5.1408,-5.1307,-5.1352,-5.1421,-5.1418,-5.1426,-5.166,-5.1581,-5.1673,-5.1821,-5.1893,-5.1921,-5.1947,-5.2029,-5.2059,-5.169,-5.1691,-5.1691,0,-5.148,-5.1556,-5.1473,-5.1543,-5.1555,-5.1433,-5.1527,-5.1525,-5.1525,-5.1536,-5.1468,-5.155,-5.1536,-5.1652,-5.1709,-5.172,-5.1743,-5.1675,-5.1924,-5.1948,-5.1971,-5.2048,-5.2079,-5.1702,-5.1701,-5.17,-5.1699,0,-5.1732,-5.1787,-5.1864,-5.1865,-5.1886,-5.1968,-5.1897,-5.1929,-5.187,-5.1833,-5.1922,-5.1901,-5.1926,-5.195,-5.1894,-5.2058,-5.202,-5.194,-5.1818,-5.2018,-5.2089,-5.2118,-5.1718,-5.1714,-5.1711,-5.1708,0,0,-5.2083,-5.2036,-5.2066,-5.2064,-5.2041,-5.2082,-5.2158,-5.2181,-5.2209,-5.2214,-5.2274,-5.2335,-5.2259,-5.2269,-5.2211,-5.2274,-5.2459,-5.2185,-5.2183,-5.2236,-5.2637,-5.2697,-5.2733,-5.2407,-5.2412,-5.2416,-5.2637,0,-5.2308,-5.2433,-5.2361,-5.2497,-5.2545,-5.243,-5.2496,-5.249,-5.2457,-5.2494,-5.2457,-5.2501,-5.2399,-5.2403,-5.246,-5.2425,-5.2538,-5.2408,-5.2463,-5.2466,-5.2467,-5.277,-5.2833,-5.3043,-5.2665,-5.2669,-5.2673,0,-5.2587,-5.2601,-5.2742,-5.2708,-5.2725,-5.2786,-5.28,-5.2837,-5.2828,-5.2799,-5.2809,-5.2736,-5.2809,-5.269,-5.2788,-5.2701,-5.2719,-5.2705,-5.2711,-5.2712,-5.258,-5.2778,-5.3108,-5.3139,-5.2716,-5.2712,-5.2709,0,-5.2826,-5.2881,-5.2971,-5.2974,-5.2937,-5.2982,-5.2969,-5.2953,-5.2971,-5.2985,-5.2995,-5.3018,-5.3031,-5.305,-5.2985,-5.2905,-5.3092,-5.2968,-5.307,-5.3072,-5.3114,-5.3112,-5.345,-5.3129,-5.3128,-5.3128,-5.3127,0,-5.3084,-5.3175,-5.3078,-5.3134,-5.3231,-5.3148,-5.3247,-5.3222,-5.3208,-5.3257,-5.316,-5.3209,-5.312,-5.316,-5.3111,-5.3199,-5.3206,-5.3184,-5.317,-5.3192,-5.3195,-5.3202,-5.3185,-5.3136,-5.3134,-5.3133,-5.3131,0,-5.3368,-5.3307,-5.3398,-5.3355,-5.3346,-5.342,-5.3384,-5.3434,-5.3394,-5.3457,-5.3467,-5.3405,-5.3447,-5.3384,-5.342,-5.3386,-5.3508,-5.3472,-5.3511,-5.3499,-5.3605,-5.3595,-5.3958,-5.4001,-5.3654,-5.3658,-5.3661,0,-5.3536,-5.3602,-5.3566,-5.3591,-5.3583,-5.3625,-5.3642,-5.3563,-5.3585,-5.3578,-5.363,-5.3663,-5.3684,-5.3757,-5.3715,-5.3742,-5.3705,-5.383,-5.3708,-5.3728,-5.3705,-5.3701,-5.3707,-5.3855,-5.3859,-5.3863,-5.3865,0,-5.3839,-5.3805,-5.3833,-5.3852,-5.3875,-5.3885,-5.3889,-5.3916,-5.3831,-5.3862,-5.3902,-5.3919,-5.3954,-5.3988,-5.4004,-5.3991,-5.3915,-5.3904,-5.3929,-5.3952,-5.3971,-5.396,-5.3577,-5.3896,-5.3893,-5.3891,-5.3889,-5.3888,-5.4068,-5.4121,-5.4103,-5.4138,-5.4132,-5.4137,-5.4181,-5.4146,-5.4178,-5.4199,-5.4151,-5.4203,-5.4191,-5.4204,-5.42,-5.424,-5.4185,-5.4221,-5.423,-5.424,-5.4255,-5.3966,-5.4243,-5.4242,-5.4241,-5.424,-5.4239,0,-5.4365,-5.4348,-5.438,-5.4387,-5.4415,-5.4339,-5.4339,-5.4367,-5.4414,-5.4408,-5.4431,-5.4478,-5.451,-5.4471,-5.4497,-5.4536,-5.4502,-5.4546,-5.4541,-5.4539,-5.4304,-5.4279,-5.4573,-5.4573,-5.4573,-5.4573,-5.4573,-5.4572,-5.4523,-5.4607,-5.4572,-5.4653,-5.4634,-5.4683,-5.469,-5.4694,-5.4689,-5.4745,-5.477,-5.4744,-5.4725,-5.4748,-5.4775,-5.4763,-5.4776,-5.4832,-5.4808,-5.4589,-5.4556,-5.4525,-5.4501,-5.4836,-5.4836,-5.5039,-5.5041,-5.5042]},{"header":{"parameterUnit":"m.s-1","parameterCategory":1,"la1":30.2991,"la2":30.254,"lo1":-89.0895,"lo2":-89.0444,"dy":0.0017,"dx":0.0017,"nx":28,"ny":28,"refTime":"2025-01-03T09:00:00:Z","depth":0,"parameterNumber":3,"parameterNumberName":"V-component_of_WINDS"},"data":[0,0,0,0,0,0,0,0,0,0,0,0,0,0,0,0,0,0,0,0,0,0,0,0,0,0,0,0,0,0,0,0,0,0,0,0,0,0,0,0,0,0,0,0,0,0,0,0,0,0,0,0,0,0,0,0,0,0,-1.5389,-1.539,0,-1.5446,-1.5447,-1.5447,-1.548,-1.548,-1.5481,-1.5481,-1.5537,-1.5538,-1.554,0,0,0,0,0,0,0,0,0,0,0,0,0,-1.5306,-1.5308,-1.5389,-1.539,-1.5391,-1.5446,-1.5447,-1.5448,-1.548,-1.548,-1.5481,-1.5481,-1.5536,-1.5538,-1.554,0,0,0,0,0,0,0,0,0,0,0,0,0,-1.535,-1.5308,-1.5389,-1.5414,-1.5417,-1.5446,-1.5447,-1.5448,-1.548,-1.548,-1.5481,-1.5481,-1.5536,-1.5538,-1.554,-1.5549,0,0,-1.5546,-1.5547,0,0,0,0,0,0,0,0,-1.5348,-1.5354,-1.541,-1.5412,-1.5415,-1.5456,-1.5438,-1.5482,-1.548,-1.5456,-1.5481,-1.5481,-1.551,-1.5514,-1.5524,-1.5551,-1.5554,-1.5546,-1.5548,-1.5549,-1.5549,0,0,0,0,0,0,0,-1.5345,-1.5351,-1.5412,-1.541,-1.5414,-1.5421,-1.5427,-1.5446,-1.5481,-1.5458,-1.5461,-1.5467,-1.5511,-1.5522,-1.5526,-1.5554,-1.5546,-1.5548,-1.5549,-1.555,-1.5589,-1.5589,0,0,0,0,0,0,-1.5338,-1.5348,-1.541,-1.5414,-1.5382,-1.5422,-1.543,-1.5443,-1.5481,-1.5487,-1.5467,-1.5468,-1.5519,-1.5523,-1.5528,-1.5539,-1.5549,-1.555,-1.5552,-1.559,-1.5589,-1.5589,0,0,0,0,0,0,-1.5336,-1.5343,-1.5408,-1.5382,-1.539,-1.5424,-1.5438,-1.5444,-1.5455,-1.5488,-1.5494,-1.5472,-1.5519,-1.5525,-1.5543,-1.5542,-1.5551,-1.5553,-1.559,-1.559,-1.5589,-1.5563,0,0,0,0,0,0,-1.5334,-1.5343,-1.5347,-1.5382,-1.5392,-1.5423,-1.5438,-1.5445,-1.5458,-1.5461,-1.5494,-1.5499,-1.5519,-1.554,-1.5545,-1.5545,-1.5555,-1.559,-1.559,-1.5589,-1.5564,-1.5562,-1.556,0,0,0,0,0,-1.5331,-1.5337,-1.5347,-1.5354,-1.5398,-1.5423,-1.5428,-1.5452,-1.5458,-1.5462,-1.5483,-1.5498,-1.5541,-1.5541,-1.5547,-1.5548,-1.559,-1.559,-1.5589,-1.5565,-1.5562,-1.556,0,0,0,0,0,0,-1.5302,-1.5343,-1.5354,-1.5372,-1.5394,-1.5428,-1.5434,-1.5449,-1.5469,-1.547,-1.5498,-1.5505,-1.552,-1.5536,-1.5535,-1.5557,-1.5567,-1.5568,-1.5547,-1.5544,-1.5542,-1.5538,-1.5557,0,0,0,0,0,-1.5298,-1.5315,-1.5349,-1.5362,-1.5372,-1.5401,-1.5413,-1.5429,-1.5452,-1.5462,-1.5484,-1.5505,-1.5523,-1.5535,-1.5553,-1.5566,-1.5573,-1.557,-1.5568,-1.5566,-1.5566,-1.5572,-1.5571,-1.5588,-1.5588,-1.5588,0,0,-1.5289,-1.5313,-1.5323,-1.5357,-1.5375,-1.5391,-1.5409,-1.5426,-1.5437,-1.5464,-1.5482,-1.5499,-1.5524,-1.554,-1.5547,-1.5553,-1.5563,-1.5565,-1.5563,-1.5565,-1.5572,-1.557,-1.5569,-1.5587,-1.5588,-1.5588,0,0,-1.5282,-1.5302,-1.5315,-1.5333,-1.5361,-1.538,-1.5382,-1.5414,-1.5427,-1.5445,-1.5465,-1.5479,-1.551,-1.5527,-1.554,-1.5536,-1.555,-1.5541,-1.5531,-1.5537,-1.5535,-1.5534,-1.5532,-1.5531,-1.5542,-1.5542,-1.5542,0,-1.5268,-1.5294,-1.5319,-1.5334,-1.5348,-1.5372,-1.5384,-1.54,-1.5432,-1.5441,-1.5447,-1.5485,-1.5504,-1.5523,-1.5522,-1.5532,-1.5535,-1.5538,-1.5533,-1.5533,-1.5532,-1.553,-1.5529,-1.554,-1.554,-1.5541,-1.5541,0,-1.5274,-1.5291,-1.5298,-1.5328,-1.5343,-1.5356,-1.5382,-1.5393,-1.5408,-1.5425,-1.5443,-1.5466,-1.549,-1.5495,-1.551,-1.5515,-1.5518,-1.5528,-1.5539,-1.5529,-1.5527,-1.5527,-1.5538,-1.5539,-1.5539,-1.554,0,0,-1.5252,-1.5295,-1.5297,-1.531,-1.5341,-1.5355,-1.5368,-1.5391,-1.54,-1.542,-1.5432,-1.5456,-1.5466,-1.548,-1.5496,-1.5501,-1.5496,-1.5511,-1.5512,-1.5507,-1.5502,-1.5493,-1.5492,-1.5505,-1.5505,-1.5505,-1.5499,0,-1.5248,-1.5275,-1.5297,-1.5315,-1.533,-1.5353,-1.5364,-1.5384,-1.54,-1.5415,-1.5433,-1.545,-1.5461,-1.547,-1.5476,-1.5495,-1.5495,-1.5496,-1.5514,-1.5515,-1.5507,-1.5491,-1.5483,-1.5476,-1.5499,-1.5499,-1.5499,0,-1.5249,-1.5268,-1.5288,-1.5316,-1.5323,-1.5333,-1.5355,-1.5369,-1.5391,-1.5402,-1.5417,-1.5434,-1.5448,-1.5456,-1.5475,-1.5475,-1.5484,-1.5494,-1.5494,-1.5497,-1.5506,-1.5492,-1.5475,-1.5474,-1.5498,-1.5498,-1.5498,0,-1.5229,-1.526,-1.5276,-1.5286,-1.532,-1.5326,-1.534,-1.5363,-1.5374,-1.5393,-1.54,-1.542,-1.543,-1.5445,-1.5466,-1.547,-1.5481,-1.5492,-1.549,-1.5489,-1.5491,-1.5491,-1.5474,-1.5498,-1.5498,-1.5498,-1.5498,0,-1.5223,-1.5234,-1.5267,-1.5276,-1.5288,-1.5312,-1.5323,-1.5339,-1.5358,-1.537,-1.539,-1.5401,-1.5428,-1.5441,-1.5458,-1.5469,-1.5474,-1.5483,-1.5487,-1.5481,-1.548,-1.5487,-1.5488,-1.5498,-1.5498,-1.5498,-1.5498,0,-1.5204,-1.5227,-1.5244,-1.5274,-1.5282,-1.5289,-1.5314,-1.5323,-1.534,-1.5354,-1.5359,-1.5385,-1.5401,-1.5424,-1.5447,-1.5458,-1.5467,-1.5474,-1.546,-1.5462,-1.5458,-1.5458,-1.5445,-1.5444,-1.5469,-1.5469,-1.5468,0,-1.5199,-1.5207,-1.5238,-1.5247,-1.526,-1.5275,-1.5287,-1.531,-1.5321,-1.5346,-1.5351,-1.5369,-1.5385,-1.541,-1.543,-1.5447,-1.5454,-1.5449,-1.5457,-1.545,-1.5453,-1.5452,-1.5452,-1.5447,-1.5446,-1.5446,-1.5446,0,-1.5187,-1.5197,-1.5213,-1.5232,-1.5246,-1.5262,-1.5279,-1.5286,-1.5312,-1.5323,-1.534,-1.5352,-1.5375,-1.5392,-1.5412,-1.5425,-1.5439,-1.5443,-1.5443,-1.5436,-1.5427,-1.5431,-1.5453,-1.5443,-1.5443,-1.5443,-1.5444,-1.5444,-1.5174,-1.5182,-1.5204,-1.522,-1.5235,-1.5251,-1.526,-1.5277,-1.5292,-1.5313,-1.5325,-1.5341,-1.5361,-1.5389,-1.5401,-1.5413,-1.5419,-1.542,-1.542,-1.5419,-1.5416,-1.5426,-1.5417,-1.5417,-1.5417,-1.5417,-1.5417,0,-1.5162,-1.5177,-1.5192,-1.5215,-1.5227,-1.5239,-1.5258,-1.5268,-1.5281,-1.5299,-1.5313,-1.5331,-1.5347,-1.5368,-1.5385,-1.5391,-1.5397,-1.5394,-1.5394,-1.5396,-1.5411,-1.5409,-1.5388,-1.5388,-1.5388,-1.5388,-1.5388,-1.5388,-1.5157,-1.5171,-1.5183,-1.5203,-1.5218,-1.5233,-1.5243,-1.5256,-1.527,-1.5289,-1.5302,-1.5316,-1.5334,-1.5353,-1.5367,-1.5373,-1.5378,-1.5372,-1.538,-1.5393,-1.5396,-1.5398,-1.5396,-1.5373,-1.5373,-1.5364,-1.5364,-1.5364]}]]